Home > Weather > Ålgård > Past weeks

Flag for Norway Past Weather in Ålgård, Norway — Yesterday and Last 2 Weeks

Now
61 °F

Sprinkles. Broken clouds.


Feels Like: 61 °F
Forecast: 51 / 59 °F
Wind: 16 mph from South

Location: Stavanger / Sola

Current Time: Jul 1, 2016 at 5:16:43 PM

Latest Report: Jul 1, 2016 at 4:20 PM


Visibility: N/A

Pressure: 29.47 "Hg

Humidity: 83%

Dew Point: 55 °F

Location of ÅlgårdLocation

Past Weather in Ålgård — Graph

°F

Ålgård Temperature Yesterday

Maximum temperature yesterday: 63 °F (at 2:20 PM)
Minimum temperature yesterday: 55 °F (at 1:50 AM)
Average temperature yesterday: 58 °F

High & Low Weather Summary for the Past Weeks

 TemperatureHumidityPressure
High70 °F (Jun 23, 2:50 PM)100% (Jun 17, 1:50 AM)30.12 "Hg (Jun 17, 1:50 AM)
Low45 °F (Jun 20, 2:50 AM)56% (Jun 22, 12:20 PM)29.39 "Hg (Jun 30, 7:50 AM)
Average58 °F83%29.83 "Hg
* Reported Jun 16 3:20 PM — Jul 1 3:50 PM, Ålgård, Weather by CustomWeather, © 2016

Note: Actual official high and low records may vary slightly from our data, if they occured in-between our weather recording intervals... More about our weather records

Advertising

Ålgård Weather History for the Previous 24 Hours

Scroll right to see more
 ConditionsComfort  
Time TempWeatherWind HumidityBarometerVisibility
3:50 PM
Fri, Jul 1
59 °FSprinkles. Broken clouds.18 mph88%29.47 "HgN/A
3:20 PM59 °FPartly sunny.21 mph88%29.47 "HgN/A
2:50 PM57 °FDrizzle. Fog.12 mph88%29.47 "Hg2 mi
2:20 PM57 °FMostly cloudy.16 mph88%29.47 "HgN/A
1:50 PM57 °FLight rain. Partly sunny.17 mph82%29.47 "HgN/A
1:20 PM57 °FLight rain. Partly sunny.13 mph77%29.47 "HgN/A
12:50 PM55 °FLight rain. Broken clouds.7 mph82%29.50 "HgN/A
12:20 PM57 °FDrizzle. Broken clouds.10 mph77%29.50 "HgN/A
11:50 AM57 °FBroken clouds.7 mph77%29.53 "HgN/A
11:20 AM55 °FLight rain. Broken clouds.3 mph82%29.53 "HgN/A
10:50 AM55 °FDrizzle. Partly sunny.6 mph82%29.53 "HgN/A
10:20 AM55 °FLight rain. Partly sunny.7 mph77%29.56 "HgN/A
9:50 AM55 °FLight rain. Broken clouds.7 mph82%29.56 "HgN/A
9:20 AM55 °FLight rain. Broken clouds.10 mph77%29.59 "HgN/A
8:50 AM55 °FDrizzle. Broken clouds.8 mph77%29.59 "HgN/A
8:20 AM55 °FDrizzle. Broken clouds.7 mph77%29.59 "HgN/A
7:50 AM55 °FDrizzle. Broken clouds.12 mph77%29.62 "HgN/A
7:20 AM55 °FBroken clouds.10 mph77%29.62 "HgN/A
6:50 AM55 °FBroken clouds.10 mph82%29.62 "HgN/A
6:20 AM55 °FBroken clouds.7 mph82%29.65 "HgN/A
5:50 AM54 °FPartly sunny.5 mph88%29.65 "HgN/A
4:50 AM54 °FPassing clouds.7 mph88%29.65 "HgN/A
3:50 AM54 °FPassing clouds.7 mph88%29.68 "HgN/A
2:50 AM55 °FPartly cloudy.7 mph88%29.68 "HgN/A
1:50 AM55 °FSprinkles. Passing clouds.6 mph82%29.71 "HgN/A
12:50 AM54 °FPassing clouds.6 mph88%29.71 "HgN/A
12:20 AM54 °FPassing clouds.7 mph88%29.71 "HgN/A
11:50 PM
Thu, Jun 30
55 °FPassing clouds.7 mph82%29.71 "HgN/A
11:20 PM55 °FPartly sunny.7 mph82%29.71 "HgN/A
10:50 PM55 °FScattered clouds.7 mph82%29.71 "HgN/A
10:20 PM57 °FScattered clouds.8 mph77%29.71 "HgN/A
9:50 PM57 °FScattered clouds.10 mph82%29.71 "HgN/A
9:20 PM59 °FScattered clouds.13 mph72%29.71 "Hg5 mi
8:50 PM59 °FScattered clouds.14 mph72%29.68 "HgN/A
8:20 PM61 °FScattered clouds.13 mph72%29.68 "HgN/A
7:50 PM59 °FScattered clouds.13 mph72%29.68 "HgN/A
7:20 PM61 °FScattered clouds.14 mph72%29.68 "HgN/A
6:50 PM59 °FScattered clouds.13 mph77%29.68 "HgN/A
6:20 PM61 °FScattered clouds.15 mph72%29.68 "HgN/A
5:50 PM61 °FScattered clouds.14 mph68%29.68 "HgN/A
5:20 PM61 °FScattered showers. Scattered clouds.16 mph72%29.68 "HgN/A
Weather by CustomWeather, © 2016

See weather overviewHow to use our weather pages